When you browse on this site, cookies collect data to enhance your experience and personalize the content and advertising you see.
Visit our Privacy Policy to learn more. By continuing to use the site, you agree to this use of cookies and data.
  • In Latvia
  • List of Countries
  • For 7 days
  • Water Temperature
  • Weather Map
  • Weather Widgets
  • user-avatar
    Login

    Hourly Weather Bekescsaba

    Today, 17 September, Tuesday

    Time Temperature Precipitation Wind Pressure Humidity
    00:00 +20°C° 0.1 mm 2 mps 753 mmHg 60%
    01:00 +20°C° 0.1 mm 2 mps 753 mmHg 62%
    02:00 +20°C° 0.1 mm 2 mps 753 mmHg 61%
    03:00 +20°C° 0.1 mm 2 mps 753 mmHg 61%
    04:00 +21°C° 0.1 mm 1 mps 752 mmHg 61%
    05:00 +20°C° 0 mm 2 mps 753 mmHg 60%
    06:00 +20°C° 0 mm 2 mps 753 mmHg 58%
    07:00 +21°C° 0 mm 2 mps 753 mmHg 57%
    08:00 +23°C° 0 mm 2 mps 753 mmHg 53%
    09:00 +24°C° 0 mm 3 mps 753 mmHg 49%
    10:00 +26°C° 0 mm 3 mps 753 mmHg 45%
    11:00 +27°C° 0 mm 4 mps 753 mmHg 43%
    12:00 +27°C° 0 mm 5 mps 752 mmHg 40%
    13:00 +28°C° 0 mm 5 mps 752 mmHg 38%
    14:00 +28°C° 0 mm 5 mps 752 mmHg 39%
    15:00 +28°C° 0 mm 6 mps 751 mmHg 39%
    16:00 +27°C° 0 mm 6 mps 751 mmHg 40%
    17:00 +26°C° 0 mm 5 mps 751 mmHg 45%
    18:00 +23°C° 0 mm 4 mps 751 mmHg 50%
    19:00 +21°C° 0 mm 3 mps 751 mmHg 55%
    20:00 +21°C° 0 mm 2 mps 751 mmHg 57%
    21:00 +21°C° 0 mm 2 mps 751 mmHg 58%
    22:00 +20°C° 0 mm 2 mps 751 mmHg 60%
    23:00 +20°C° 0.1 mm 2 mps 751 mmHg 61%

    Tomorrow, 18 September, Wednesday

    Time Temperature Precipitation Wind Pressure Humidity
    00:00 +20°C° 0.1 mm 2 mps 752 mmHg 61%
    01:00 +19°C° 0.1 mm 2 mps 752 mmHg 62%
    02:00 +18°C° 0 mm 3 mps 752 mmHg 59%
    03:00 +18°C° 0 mm 4 mps 753 mmHg 57%
    04:00 +17°C° 0 mm 4 mps 753 mmHg 54%
    05:00 +15°C° 0 mm 5 mps 754 mmHg 51%
    06:00 +14°C° 0 mm 5 mps 755 mmHg 48%
    07:00 +14°C° 0 mm 5 mps 756 mmHg 45%
    08:00 +15°C° 0 mm 5 mps 756 mmHg 39%
    09:00 +17°C° 0 mm 4 mps 757 mmHg 33%
    10:00 +19°C° 0 mm 4 mps 757 mmHg 27%
    11:00 +19°C° 0 mm 4 mps 757 mmHg 26%
    12:00 +20°C° 0 mm 5 mps 757 mmHg 24%
    13:00 +20°C° 0 mm 5 mps 757 mmHg 23%
    14:00 +20°C° 0 mm 5 mps 757 mmHg 24%
    15:00 +20°C° 0 mm 5 mps 757 mmHg 25%
    16:00 +20°C° 0 mm 5 mps 757 mmHg 26%
    17:00 +18°C° 0 mm 4 mps 757 mmHg 31%
    18:00 +16°C° 0 mm 3 mps 758 mmHg 36%
    19:00 +14°C° 0 mm 2 mps 758 mmHg 40%
    20:00 +14°C° 0 mm 2 mps 758 mmHg 43%
    21:00 +13°C° 0 mm 2 mps 759 mmHg 46%
    22:00 +12°C° 0 mm 2 mps 759 mmHg 48%
    23:00 +12°C° 0 mm 2 mps 759 mmHg 51%

    Day after tomorrow, 19 September, Thursday

    Time Temperature Precipitation Wind Pressure Humidity
    00:00 +10°C° 0 mm 2 mps 759 mmHg 53%
    01:00 +10°C° 0 mm 2 mps 759 mmHg 55%
    02:00 +9°C° 0 mm 2 mps 759 mmHg 57%
    03:00 +9°C° 0 mm 2 mps 759 mmHg 58%
    04:00 +9°C° 0 mm 2 mps 759 mmHg 60%
    05:00 +9°C° 0 mm 2 mps 759 mmHg 57%
    06:00 +10°C° 0 mm 2 mps 759 mmHg 54%
    07:00 +12°C° 0 mm 2 mps 759 mmHg 52%
    08:00 +13°C° 0 mm 3 mps 759 mmHg 46%
    09:00 +15°C° 0 mm 4 mps 759 mmHg 40%
    10:00 +17°C° 0 mm 4 mps 759 mmHg 34%
    11:00 +18°C° 0 mm 4 mps 759 mmHg 33%
    12:00 +18°C° 0 mm 4 mps 759 mmHg 31%
    13:00 +19°C° 0 mm 4 mps 758 mmHg 29%
    14:00 +18°C° 0 mm 4 mps 758 mmHg 31%
    15:00 +17°C° 0 mm 5 mps 758 mmHg 33%
    16:00 +17°C° 0 mm 5 mps 758 mmHg 35%
    17:00 +15°C° 0 mm 4 mps 759 mmHg 41%
    18:00 +13°C° 0 mm 3 mps 759 mmHg 46%
    19:00 +11°C° 0 mm 3 mps 760 mmHg 52%
    20:00 +12°C° 0 mm 2 mps 760 mmHg 53%
    21:00 +12°C° 0 mm 2 mps 760 mmHg 53%
    22:00 +10°C° 0 mm 2 mps 760 mmHg 54%
    23:00 +11°C° 0 mm 1 mps 760 mmHg 54%

    20 September, Friday

    Time Temperature Precipitation Wind Pressure Humidity
    00:00 +10°C° 0 mm 1 mps 761 mmHg 55%
    01:00 +10°C° 0 mm 1 mps 761 mmHg 56%
    02:00 +10°C° 0 mm 1 mps 761 mmHg 58%
    03:00 +9°C° 0 mm 1 mps 761 mmHg 60%
    04:00 +9°C° 0 mm 1 mps 761 mmHg 62%
    05:00 +10°C° 0 mm 1 mps 761 mmHg 59%
    06:00 +9°C° 0 mm 0 mps 761 mmHg 56%
    07:00 +10°C° 0 mm 0 mps 761 mmHg 54%
    08:00 +13°C° 0 mm 1 mps 761 mmHg 48%
    09:00 +15°C° 0 mm 1 mps 762 mmHg 42%
    10:00 +17°C° 0 mm 2 mps 762 mmHg 36%
    11:00 +17°C° 0 mm 2 mps 762 mmHg 34%
    12:00 +18°C° 0 mm 2 mps 761 mmHg 32%
    13:00 +19°C° 0 mm 2 mps 761 mmHg 29%
    14:00 +18°C° 0 mm 2 mps 761 mmHg 29%
    15:00 +18°C° 0 mm 3 mps 760 mmHg 29%
    16:00 +18°C° 0 mm 3 mps 760 mmHg 29%
    17:00 +17°C° 0 mm 3 mps 761 mmHg 33%
    18:00 +15°C° 0 mm 2 mps 761 mmHg 37%
    19:00 +13°C° 0 mm 2 mps 762 mmHg 41%
    20:00 +13°C° 0 mm 2 mps 762 mmHg 42%
    21:00 +12°C° 0 mm 2 mps 762 mmHg 44%
    22:00 +10°C° 0 mm 2 mps 762 mmHg 45%
    23:00 +10°C° 0 mm 2 mps 762 mmHg 47%

    21 September, Saturday

    Time Temperature Precipitation Wind Pressure Humidity
    00:00 +9°C° 0 mm 2 mps 763 mmHg 49%
    01:00 +9°C° 0 mm 2 mps 763 mmHg 50%
    02:00 +9°C° 0 mm 2 mps 763 mmHg 52%
    03:00 +8°C° 0 mm 2 mps 763 mmHg 53%
    04:00 +8°C° 0 mm 2 mps 763 mmHg 55%
    05:00 +9°C° 0 mm 2 mps 763 mmHg 54%
    06:00 +9°C° 0 mm 2 mps 763 mmHg 52%
    07:00 +10°C° 0 mm 2 mps 763 mmHg 51%
    08:00 +12°C° 0 mm 3 mps 764 mmHg 45%
    09:00 +14°C° 0 mm 3 mps 764 mmHg 40%
    10:00 +17°C° 0 mm 3 mps 764 mmHg 34%
    11:00 +18°C° 0 mm 3 mps 764 mmHg 32%
    12:00 +18°C° 0 mm 3 mps 763 mmHg 30%
    13:00 +19°C° 0 mm 3 mps 763 mmHg 28%
    14:00 +19°C° 0 mm 3 mps 763 mmHg 28%
    15:00 +19°C° 0 mm 3 mps 763 mmHg 28%
    16:00 +19°C° 0 mm 3 mps 762 mmHg 28%
    17:00 +17°C° 0 mm 3 mps 762 mmHg 32%
    18:00 +14°C° 0 mm 3 mps 763 mmHg 35%
    19:00 +14°C° 0 mm 2 mps 763 mmHg 39%
    20:00 +13°C° 0 mm 2 mps 763 mmHg 40%
    21:00 +13°C° 0 mm 2 mps 763 mmHg 40%
    22:00 +12°C° 0 mm 2 mps 763 mmHg 41%
    23:00 +12°C° 0 mm 2 mps 763 mmHg 42%

    22 September, Sunday

    Time Temperature Precipitation Wind Pressure Humidity
    00:00 +10°C° 0 mm 2 mps 763 mmHg 43%
    01:00 +10°C° 0 mm 2 mps 763 mmHg 44%
    02:00 +9°C° 0 mm 2 mps 763 mmHg 45%
    03:00 +9°C° 0 mm 2 mps 763 mmHg 46%
    04:00 +8°C° 0 mm 2 mps 763 mmHg 48%
    05:00 +9°C° 0 mm 2 mps 763 mmHg 46%
    06:00 +11°C° 0 mm 1 mps 763 mmHg 44%
    07:00 +12°C° 0 mm 1 mps 763 mmHg 42%
    08:00 +14°C° 0 mm 1 mps 763 mmHg 36%
    09:00 +17°C° 0 mm 2 mps 764 mmHg 31%
    10:00 +19°C° 0 mm 2 mps 764 mmHg 25%
    11:00 +21°C° 0 mm 1 mps 763 mmHg 23%
    12:00 +22°C° 0 mm 1 mps 763 mmHg 21%
    13:00 +23°C° 0 mm 1 mps 763 mmHg 19%
    14:00 +23°C° 0 mm 1 mps 762 mmHg 19%
    15:00 +23°C° 0 mm 1 mps 762 mmHg 19%
    16:00 +23°C° 0 mm 1 mps 762 mmHg 19%
    17:00 +22°C° 0 mm 1 mps 762 mmHg 22%
    18:00 +20°C° 0 mm 1 mps 762 mmHg 25%
    19:00 +18°C° 0 mm 1 mps 762 mmHg 27%
    20:00 +16°C° 0 mm 1 mps 762 mmHg 28%
    21:00 +15°C° 0 mm 1 mps 762 mmHg 30%
    22:00 +15°C° 0 mm 2 mps 763 mmHg 31%
    23:00 +14°C° 0 mm 2 mps 763 mmHg 32%
    Show more